| time (UTC) | temp F | wind direction | speed MPH | gust MPH | rain 1hr in | rain 24hr in | rain mn in | humidity % | barometer mb |
| 20260905222444 | 65 | 60 | 0.0 | 0.0 | 0.00 | 0.01 | 0.01 | 69 | 1018.3 |
| 20260905221939 | 65 | 60 | 0.0 | 0.0 | 0.00 | 0.01 | 0.01 | 65 | 1018.2 |
| 20260905221436 | 67 | 60 | 0.0 | 0.0 | 0.00 | 0.01 | 0.01 | 62 | 1018.2 |
| 20260905220932 | 68 | 61 | 0.0 | 0.0 | 0.00 | 0.01 | 0.01 | 58 | 1018.6 |
| 20260905220428 | 67 | 62 | 0.0 | 0.0 | 0.00 | 0.01 | 0.01 | 59 | 1018.5 |
| 20260905215926 | 66 | 61 | 0.0 | 0.0 | 0.00 | 0.01 | 0.01 | 59 | 1018.4 |
| 20260905215422 | 67 | 61 | 0.0 | 0.0 | 0.00 | 0.01 | 0.01 | 59 | 1018.7 |
| 20260905214919 | 67 | 63 | 0.0 | 0.0 | 0.00 | 0.01 | 0.01 | 62 | 1018.6 |
| 20260905214414 | 68 | 55 | 0.0 | 0.0 | 0.00 | 0.01 | 0.01 | 63 | 1018.5 |
| 20260905213914 | 67 | 54 | 0.0 | 0.0 | 0.00 | 0.01 | 0.01 | 59 | 1018.7 |
| 20260905213410 | 67 | 54 | 0.0 | 0.0 | 0.00 | 0.01 | 0.01 | 60 | 1018.7 |
| 20260905212905 | 66 | 54 | 0.0 | 0.0 | 0.00 | 0.01 | 0.01 | 63 | 1018.6 |
| 20260905212401 | 66 | 34 | 0.0 | 0.0 | 0.00 | 0.01 | 0.01 | 63 | 1018.8 |
| 20260905211859 | 65 | 36 | 0.0 | 0.0 | 0.00 | 0.01 | 0.01 | 66 | 1018.7 |
| 20260905211355 | 65 | 36 | 0.0 | 0.0 | 0.00 | 0.01 | 0.01 | 64 | 1018.8 |
| 20260905210851 | 66 | 36 | 0.0 | 0.0 | 0.00 | 0.01 | 0.01 | 59 | 1018.9 |
| 20260905210351 | 65 | 57 | 0.0 | 0.0 | 0.00 | 0.01 | 0.01 | 62 | 1018.7 |
| 20260905205850 | 65 | 58 | 0.0 | 0.0 | 0.00 | 0.01 | 0.01 | 61 | 1018.8 |
| 20260905205345 | 66 | 63 | 0.0 | 0.0 | 0.00 | 0.01 | 0.01 | 62 | 1018.9 |
| 20260905204844 | 65 | 16 | 0.0 | 0.0 | 0.00 | 0.01 | 0.01 | 65 | 1018.8 |
| 20260905204340 | 65 | 15 | 0.0 | 0.0 | 0.00 | 0.01 | 0.01 | 67 | 1018.9 |
| 20260905203839 | 65 | 15 | 0.0 | 0.0 | 0.00 | 0.01 | 0.01 | 68 | 1019.1 |
| 20260905203335 | 64 | 16 | 0.0 | 0.0 | 0.00 | 0.01 | 0.01 | 69 | 1019.1 |
| 20260905202831 | 63 | 16 | 0.0 | 0.0 | 0.00 | 0.01 | 0.01 | 67 | 1019.0 |
| 20260905202325 | 63 | 15 | 0.0 | 0.0 | 0.00 | 0.01 | 0.01 | 68 | 1019.1 |
| 20260905201821 | 62 | 15 | 0.0 | 0.0 | 0.00 | 0.01 | 0.01 | 73 | 1019.3 |
| 20260905201316 | 63 | 14 | 0.0 | 0.0 | 0.00 | 0.01 | 0.01 | 72 | 1019.3 |
| 20260905200810 | 62 | 14 | 0.0 | 0.0 | 0.00 | 0.01 | 0.01 | 71 | 1019.2 |
| 20260905200307 | 62 | 14 | 0.0 | 0.0 | 0.00 | 0.01 | 0.01 | 74 | 1019.4 |
| 20260905195804 | 62 | 14 | 0.0 | 0.0 | 0.00 | 0.01 | 0.01 | 73 | 1019.2 |
| 20260905195259 | 62 | 14 | 0.0 | 0.0 | 0.00 | 0.01 | 0.01 | 70 | 1019.3 |
| 20260905194755 | 63 | 14 | 0.0 | 0.0 | 0.00 | 0.01 | 0.01 | 71 | 1019.2 |
| 20260905194255 | 63 | 14 | 0.0 | 0.0 | 0.00 | 0.01 | 0.01 | 73 | 1019.2 |
| 20260905193754 | 63 | 15 | 0.0 | 1.0 | 0.00 | 0.01 | 0.01 | 68 | 1019.2 |
| 20260905193249 | 64 | 14 | 0.0 | 0.0 | 0.00 | 0.01 | 0.01 | 72 | 1019.3 |
| 20260905192744 | 63 | 14 | 0.0 | 0.0 | 0.00 | 0.01 | 0.01 | 70 | 1019.3 |
| 20260905192241 | 64 | 28 | 0.0 | 0.0 | 0.00 | 0.01 | 0.01 | 70 | 1019.3 |
| 20260905191740 | 63 | 61 | 0.0 | 0.0 | 0.00 | 0.01 | 0.01 | 70 | 1019.3 |
| 20260905191239 | 62 | 60 | 0.0 | 0.0 | 0.00 | 0.01 | 0.01 | 77 | 1019.4 |
| 20260905190737 | 63 | 61 | 0.0 | 1.0 | 0.00 | 0.01 | 0.01 | 71 | 1019.2 |
| 20260905190236 | 63 | 60 | 0.0 | 1.0 | 0.00 | 0.01 | 0.01 | 71 | 1019.5 |
| 20260905185735 | 63 | 44 | 0.0 | 0.0 | 0.00 | 0.01 | 0.01 | 75 | 1019.3 |
| 20260905185230 | 63 | 44 | 0.0 | 0.0 | 0.00 | 0.01 | 0.01 | 74 | 1019.3 |
| 20260905184725 | 63 | 43 | 0.0 | 0.0 | 0.00 | 0.01 | 0.01 | 80 | 1019.4 |
| 20260905184224 | 62 | 42 | 0.0 | 0.0 | 0.00 | 0.01 | 0.01 | 79 | 1019.5 |
| 20260905183723 | 62 | 42 | 0.0 | 0.0 | 0.00 | 0.01 | 0.01 | 79 | 1019.5 |
| 20260905183219 | 61 | 42 | 0.0 | 0.0 | 0.00 | 0.01 | 0.01 | 79 | 1019.5 |
| 20260905182719 | 60 | 58 | 0.0 | 0.0 | 0.00 | 0.01 | 0.01 | 85 | 1019.6 |
| 20260905182218 | 59 | 57 | 0.0 | 0.0 | 0.00 | 0.01 | 0.01 | 89 | 1019.8 |
| 20260905181714 | 59 | 57 | 0.0 | 0.0 | 0.00 | 0.01 | 0.01 | 88 | 1019.6 |
| 20260905181213 | 59 | 57 | 0.0 | 0.0 | 0.00 | 0.01 | 0.01 | 89 | 1019.7 |
| 20260905180707 | 59 | 57 | 0.0 | 0.0 | 0.00 | 0.01 | 0.01 | 89 | 1019.6 |
| 20260905180203 | 59 | 57 | 0.0 | 0.0 | 0.00 | 0.01 | 0.01 | 90 | 1019.6 |
| 20260905175702 | 59 | 57 | 0.0 | 0.0 | 0.00 | 0.01 | 0.01 | 87 | 1019.7 |
| 20260905175157 | 59 | 57 | 0.0 | 0.0 | 0.00 | 0.01 | 0.01 | 88 | 1019.6 |
| 20260905174653 | 59 | 57 | 0.0 | 0.0 | 0.00 | 0.01 | 0.01 | 90 | 1019.6 |
| 20260905174148 | 59 | 57 | 0.0 | 0.0 | 0.00 | 0.01 | 0.01 | 89 | 1019.5 |
| 20260905173644 | 59 | 57 | 0.0 | 0.0 | 0.00 | 0.01 | 0.01 | 88 | 1019.6 |
| 20260905173139 | 59 | 57 | 0.0 | 0.0 | 0.00 | 0.01 | 0.01 | 87 | 1019.6 |
| 20260905172638 | 59 | 58 | 0.0 | 0.0 | 0.00 | 0.01 | 0.01 | 89 | 1019.6 |
| 20260905172133 | 59 | 57 | 0.0 | 0.0 | 0.00 | 0.01 | 0.01 | 91 | 1019.6 |
| 20260905171630 | 58 | 57 | 0.0 | 0.0 | 0.05 | 0.01 | 0.01 | 92 | 1019.6 |
| 20260905171125 | 58 | 57 | 0.0 | 0.0 | 0.05 | 0.01 | 0.01 | 92 | 1019.4 |
| 20260905170622 | 58 | 57 | 0.0 | 0.0 | 0.00 | 0.00 | 0.00 | 93 | 1019.7 |
| 20260905170117 | 58 | 57 | 0.0 | 0.0 | 0.00 | 0.00 | 0.00 | 92 | 1019.5 |
| 20260905165617 | 58 | 57 | 0.0 | 0.0 | 0.00 | 0.00 | 0.00 | 93 | 1019.6 |
| 20260905165112 | 58 | 57 | 0.0 | 0.0 | 0.00 | 0.00 | 0.00 | 95 | 1019.6 |
| 20260905164602 | 57 | 57 | 0.0 | 0.0 | 0.00 | 0.00 | 0.00 | 95 | 1019.4 |
| 20260905164101 | 57 | 58 | 0.0 | 0.0 | 0.00 | 0.00 | 0.00 | 96 | 1019.5 |
| 20260905163557 | 56 | 58 | 0.0 | 0.0 | 0.00 | 0.00 | 0.00 | 97 | 1019.5 |
| 20260905163054 | 55 | 57 | 0.0 | 0.0 | 0.00 | 0.00 | 0.00 | 97 | 1019.5 |
| 20260905162550 | 55 | 57 | 0.0 | 0.0 | 0.00 | 0.00 | 0.00 | 97 | 1019.4 |
| 20260905162049 | 55 | 57 | 0.0 | 0.0 | 0.00 | 0.00 | 0.00 | 97 | 1019.5 |
| 20260905161549 | 55 | 57 | 0.0 | 0.0 | 0.00 | 0.00 | 0.00 | 97 | 1019.4 |
| 20260905161047 | 55 | 57 | 0.0 | 0.0 | 0.00 | 0.00 | 0.00 | 97 | 1019.5 |
| 20260905160545 | 55 | 57 | 0.0 | 0.0 | 0.00 | 0.00 | 0.00 | 98 | 1019.5 |
| 20260905160040 | 55 | 57 | 0.0 | 0.0 | 0.00 | 0.00 | 0.00 | 98 | 1019.5 |
| 20260905155540 | 55 | 57 | 0.0 | 0.0 | 0.00 | 0.00 | 0.00 | 98 | 1019.5 |
| 20260905155038 | 54 | 57 | 0.0 | 0.0 | 0.00 | 0.00 | 0.00 | 98 | 1019.8 |
| 20260905154533 | 54 | 57 | 0.0 | 0.0 | 0.00 | 0.00 | 0.00 | 98 | 1019.5 |
| 20260905154029 | 54 | 57 | 0.0 | 0.0 | 0.00 | 0.00 | 0.00 | 98 | 1019.6 |
| 20260905153525 | 54 | 57 | 0.0 | 0.0 | 0.00 | 0.00 | 0.00 | 98 | 1019.6 |
| 20260905153025 | 54 | 57 | 0.0 | 0.0 | 0.00 | 0.00 | 0.00 | 98 | 1019.7 |
| 20260905152519 | 53 | 57 | 0.0 | 0.0 | 0.00 | 0.00 | 0.00 | 98 | 1019.6 |
| 20260905152015 | 53 | 57 | 0.0 | 0.0 | 0.00 | 0.00 | 0.00 | 98 | 1019.6 |
| 20260905151510 | 53 | 57 | 0.0 | 0.0 | 0.00 | 0.00 | 0.00 | 98 | 1019.5 |
| 20260905151005 | 53 | 57 | 0.0 | 0.0 | 0.00 | 0.00 | 0.00 | 98 | 1019.3 |
| 20260905150500 | 53 | 57 | 0.0 | 0.0 | 0.00 | 0.00 | 0.00 | 98 | 1019.5 |
| 20260905145956 | 53 | 57 | 0.0 | 0.0 | 0.00 | 0.00 | 0.00 | 99 | 1019.6 |
| 20260905145451 | 53 | 57 | 0.0 | 0.0 | 0.00 | 0.00 | 0.00 | 99 | 1019.4 |
| 20260905144950 | 52 | 57 | 0.0 | 0.0 | 0.00 | 0.00 | 0.00 | 99 | 1019.5 |
| 20260905144446 | 52 | 57 | 0.0 | 0.0 | 0.00 | 0.00 | 0.00 | 99 | 1019.3 |
| 20260905143945 | 52 | 57 | 0.0 | 0.0 | 0.00 | 0.00 | 0.00 | 99 | 1019.3 |
| 20260905143444 | 52 | 57 | 0.0 | 0.0 | 0.00 | 0.00 | 0.00 | 99 | 1019.5 |
| 20260905142939 | 52 | 57 | 0.0 | 0.0 | 0.00 | 0.00 | 0.00 | 98 | 1019.4 |
| 20260905142438 | 52 | 57 | 0.0 | 0.0 | 0.00 | 0.00 | 0.00 | 99 | 1019.6 |
| 20260905141933 | 52 | 57 | 0.0 | 0.0 | 0.00 | 0.00 | 0.00 | 99 | 1019.2 |
| 20260905141428 | 51 | 57 | 0.0 | 0.0 | 0.00 | 0.00 | 0.00 | 99 | 1019.2 |
| 20260905140924 | 51 | 57 | 0.0 | 0.0 | 0.00 | 0.00 | 0.00 | 99 | 1019.3 |
| 20260905140419 | 51 | 57 | 0.0 | 0.0 | 0.00 | 0.00 | 0.00 | 99 | 1019.3 |
| 20260905135918 | 51 | 57 | 0.0 | 0.0 | 0.00 | 0.00 | 0.00 | 99 | 1019.4 |
| 20260905135414 | 51 | 57 | 0.0 | 0.0 | 0.00 | 0.00 | 0.00 | 99 | 1019.3 |
| 20260905134909 | 51 | 57 | 0.0 | 0.0 | 0.00 | 0.00 | 0.00 | 99 | 1019.1 |
| 20260905134408 | 51 | 57 | 0.0 | 0.0 | 0.00 | 0.00 | 0.00 | 99 | 1019.1 |
| 20260905133903 | 51 | 58 | 0.0 | 0.0 | 0.00 | 0.00 | 0.00 | 99 | 1019.3 |
| 20260905133358 | 51 | 58 | 0.0 | 0.0 | 0.00 | 0.00 | 0.00 | 99 | 1019.2 |
| 20260905132857 | 51 | 58 | 0.0 | 0.0 | 0.00 | 0.00 | 0.00 | 99 | 1019.0 |
| 20260905132353 | 51 | 58 | 0.0 | 0.0 | 0.00 | 0.00 | 0.00 | 99 | 1019.2 |
| 20260905131852 | 51 | 58 | 0.0 | 0.0 | 0.00 | 0.00 | 0.00 | 99 | 1019.2 |
| 20260905131348 | 51 | 58 | 0.0 | 0.0 | 0.00 | 0.00 | 0.00 | 99 | 1019.2 |
| 20260905130843 | 51 | 58 | 0.0 | 0.0 | 0.00 | 0.00 | 0.00 | 99 | 1019.2 |
| 20260905130342 | 51 | 58 | 0.0 | 0.0 | 0.00 | 0.00 | 0.00 | 99 | 1019.1 |
| 20260905125837 | 51 | 58 | 0.0 | 0.0 | 0.00 | 0.00 | 0.00 | 98 | 1019.2 |
| 20260905125332 | 51 | 58 | 0.0 | 0.0 | 0.00 | 0.00 | 0.00 | 98 | 1019.1 |
| 20260905124828 | 51 | 58 | 0.0 | 0.0 | 0.00 | 0.00 | 0.00 | 99 | 1018.9 |
| 20260905124325 | 51 | 58 | 0.0 | 0.0 | 0.00 | 0.00 | 0.00 | 99 | 1019.0 |
| 20260905123824 | 50 | 58 | 0.0 | 0.0 | 0.00 | 0.00 | 0.00 | 99 | 1019.3 |
| 20260905123321 | 50 | 58 | 0.0 | 0.0 | 0.00 | 0.00 | 0.00 | 98 | 1019.1 |
| 20260905122821 | 50 | 58 | 0.0 | 0.0 | 0.00 | 0.00 | 0.00 | 98 | 1019.0 |
| 20260905122320 | 51 | 58 | 0.0 | 0.0 | 0.00 | 0.00 | 0.00 | 99 | 1019.1 |
| 20260905121816 | 50 | 58 | 0.0 | 0.0 | 0.00 | 0.00 | 0.00 | 99 | 1019.1 |
| 20260905121313 | 50 | 58 | 0.0 | 0.0 | 0.00 | 0.00 | 0.00 | 99 | 1018.9 |
| 20260905120811 | 50 | 58 | 0.0 | 0.0 | 0.00 | 0.00 | 0.00 | 98 | 1019.0 |
| 20260905120306 | 50 | 58 | 0.0 | 0.0 | 0.00 | 0.00 | 0.00 | 99 | 1019.1 |
| 20260905115801 | 50 | 58 | 0.0 | 0.0 | 0.00 | 0.00 | 0.00 | 99 | 1019.0 |
| 20260905115300 | 50 | 58 | 0.0 | 0.0 | 0.00 | 0.00 | 0.00 | 99 | 1019.0 |
| 20260905114759 | 50 | 58 | 0.0 | 0.0 | 0.00 | 0.00 | 0.00 | 99 | 1018.8 |
| 20260905114259 | 50 | 58 | 0.0 | 0.0 | 0.00 | 0.00 | 0.00 | 99 | 1018.9 |
| 20260905113758 | 50 | 58 | 0.0 | 0.0 | 0.00 | 0.00 | 0.00 | 99 | 1018.8 |
| 20260905113249 | 50 | 58 | 0.0 | 0.0 | 0.00 | 0.00 | 0.00 | 99 | 1018.8 |
| 20260905112744 | 50 | 58 | 0.0 | 0.0 | 0.00 | 0.00 | 0.00 | 99 | 1018.8 |
| 20260905112244 | 50 | 58 | 0.0 | 0.0 | 0.00 | 0.00 | 0.00 | 99 | 1018.8 |
| 20260905111739 | 50 | 58 | 0.0 | 0.0 | 0.00 | 0.00 | 0.00 | 99 | 1018.9 |
| 20260905111233 | 50 | 58 | 0.0 | 0.0 | 0.00 | 0.00 | 0.00 | 98 | 1019.0 |
| 20260905110732 | 50 | 58 | 0.0 | 0.0 | 0.00 | 0.00 | 0.00 | 99 | 1019.0 |
| 20260905110227 | 50 | 58 | 0.0 | 0.0 | 0.00 | 0.00 | 0.00 | 99 | 1018.7 |
| 20260905105722 | 50 | 58 | 0.0 | 0.0 | 0.00 | 0.00 | 0.00 | 99 | 1018.9 |
| 20260905105221 | 50 | 58 | 0.0 | 0.0 | 0.00 | 0.00 | 0.00 | 99 | 1019.0 |
| 20260905104716 | 50 | 58 | 0.0 | 0.0 | 0.00 | 0.00 | 0.00 | 99 | 1018.8 |
| 20260905104212 | 49 | 58 | 0.0 | 0.0 | 0.00 | 0.00 | 0.00 | 99 | 1018.9 |
| 20260905103707 | 49 | 58 | 0.0 | 0.0 | 0.00 | 0.00 | 0.00 | 99 | 1019.0 |
| 20260905103203 | 49 | 58 | 0.0 | 0.0 | 0.00 | 0.00 | 0.00 | 99 | 1018.9 |
| 20260905102658 | 49 | 58 | 0.0 | 0.0 | 0.00 | 0.00 | 0.00 | 99 | 1018.8 |
| 20260905102155 | 49 | 58 | 0.0 | 0.0 | 0.00 | 0.00 | 0.00 | 99 | 1018.9 |
| 20260905101653 | 49 | 58 | 0.0 | 0.0 | 0.00 | 0.00 | 0.00 | 99 | 1019.1 |
| 20260905101152 | 49 | 58 | 0.0 | 0.0 | 0.00 | 0.00 | 0.00 | 99 | 1018.9 |
| 20260905100648 | 49 | 58 | 0.0 | 0.0 | 0.00 | 0.00 | 0.00 | 99 | 1019.0 |
| 20260905100143 | 49 | 58 | 0.0 | 0.0 | 0.00 | 0.00 | 0.00 | 99 | 1019.0 |
| 20260905095642 | 49 | 58 | 0.0 | 0.0 | 0.00 | 0.00 | 0.00 | 98 | 1019.0 |
| 20260905095137 | 49 | 58 | 0.0 | 0.0 | 0.00 | 0.00 | 0.00 | 98 | 1018.9 |
| 20260905094632 | 49 | 58 | 0.0 | 0.0 | 0.00 | 0.00 | 0.00 | 99 | 1018.9 |
| 20260905094131 | 49 | 58 | 0.0 | 0.0 | 0.00 | 0.00 | 0.00 | 99 | 1018.9 |
| 20260905093626 | 49 | 58 | 0.0 | 0.0 | 0.00 | 0.00 | 0.00 | 99 | 1019.1 |
| 20260905093123 | 48 | 58 | 0.0 | 0.0 | 0.00 | 0.00 | 0.00 | 99 | 1018.9 |
| 20260905092622 | 48 | 58 | 0.0 | 0.0 | 0.00 | 0.00 | 0.00 | 99 | 1018.8 |
| 20260905092119 | 48 | 58 | 0.0 | 0.0 | 0.00 | 0.00 | 0.00 | 99 | 1018.9 |
| 20260905091618 | 48 | 58 | 0.0 | 0.0 | 0.00 | 0.00 | 0.00 | 99 | 1018.9 |
| 20260905091112 | 48 | 58 | 0.0 | 0.0 | 0.00 | 0.00 | 0.00 | 98 | 1019.0 |
| 20260905090612 | 48 | 58 | 0.0 | 0.0 | 0.00 | 0.00 | 0.00 | 98 | 1018.7 |
| 20260905090108 | 48 | 58 | 0.0 | 0.0 | 0.00 | 0.00 | 0.00 | 98 | 1018.8 |
| 20260905085606 | 48 | 58 | 0.0 | 0.0 | 0.00 | 0.00 | 0.00 | 98 | 1018.8 |
| 20260905085103 | 48 | 58 | 0.0 | 0.0 | 0.00 | 0.00 | 0.00 | 98 | 1018.8 |
| 20260905084601 | 48 | 58 | 0.0 | 0.0 | 0.00 | 0.00 | 0.00 | 98 | 1018.8 |
| 20260905084057 | 48 | 58 | 0.0 | 0.0 | 0.00 | 0.00 | 0.00 | 98 | 1018.7 |
| 20260905083557 | 48 | 58 | 0.0 | 0.0 | 0.00 | 0.00 | 0.00 | 98 | 1018.7 |
| 20260905083054 | 48 | 58 | 0.0 | 0.0 | 0.00 | 0.00 | 0.00 | 98 | 1018.9 |
| 20260905082549 | 48 | 58 | 0.0 | 0.0 | 0.00 | 0.00 | 0.00 | 98 | 1018.6 |
| 20260905082045 | 47 | 58 | 0.0 | 0.0 | 0.00 | 0.00 | 0.00 | 98 | 1018.7 |
| 20260905081544 | 48 | 58 | 0.0 | 0.0 | 0.00 | 0.00 | 0.00 | 98 | 1018.7 |
| 20260905081039 | 48 | 58 | 0.0 | 0.0 | 0.00 | 0.00 | 0.00 | 98 | 1018.8 |
| 20260905080538 | 48 | 58 | 0.0 | 0.0 | 0.00 | 0.00 | 0.00 | 98 | 1018.5 |
| 20260905080034 | 48 | 58 | 0.0 | 0.0 | 0.00 | 0.00 | 0.00 | 98 | 1018.6 |
| 20260905075526 | 48 | 58 | 0.0 | 0.0 | 0.00 | 0.00 | 0.00 | 98 | 1018.7 |
| 20260905075021 | 48 | 58 | 0.0 | 0.0 | 0.00 | 0.00 | 0.00 | 98 | 1018.8 |
| 20260905074515 | 48 | 58 | 0.0 | 0.0 | 0.00 | 0.00 | 0.00 | 98 | 1018.6 |
| 20260905074011 | 48 | 58 | 0.0 | 0.0 | 0.00 | 0.00 | 0.00 | 98 | 1018.4 |
| 20260905073506 | 48 | 58 | 0.0 | 0.0 | 0.00 | 0.00 | 0.00 | 98 | 1018.3 |
| 20260905073001 | 48 | 58 | 0.0 | 0.0 | 0.00 | 0.00 | 0.00 | 98 | 1018.5 |
| 20260905072456 | 48 | 58 | 0.0 | 0.0 | 0.00 | 0.00 | 0.00 | 98 | 1018.4 |
| 20260905071951 | 48 | 58 | 0.0 | 0.0 | 0.00 | 0.00 | 0.00 | 98 | 1018.6 |
| 20260905071449 | 48 | 58 | 0.0 | 0.0 | 0.00 | 0.00 | 0.00 | 98 | 1018.4 |
| 20260905070948 | 48 | 58 | 0.0 | 0.0 | 0.00 | 0.00 | 0.00 | 98 | 1018.5 |
| 20260905070444 | 48 | 58 | 0.0 | 0.0 | 0.00 | 0.00 | 0.00 | 98 | 1018.5 |
| 20260905065944 | 48 | 58 | 0.0 | 0.0 | 0.00 | 0.09 | 0.09 | 98 | 1018.2 |
| 20260905065442 | 49 | 58 | 0.0 | 0.0 | 0.00 | 0.09 | 0.09 | 98 | 1018.3 |
| 20260905064938 | 49 | 58 | 0.0 | 0.0 | 0.00 | 0.09 | 0.09 | 98 | 1018.3 |
| 20260905064438 | 49 | 58 | 0.0 | 0.0 | 0.00 | 0.09 | 0.09 | 98 | 1018.3 |
| 20260905063932 | 49 | 58 | 0.0 | 0.0 | 0.00 | 0.09 | 0.09 | 98 | 1018.1 |
| 20260905063428 | 49 | 58 | 0.0 | 0.0 | 0.00 | 0.09 | 0.09 | 98 | 1018.1 |
| 20260905062924 | 49 | 58 | 0.0 | 0.0 | 0.00 | 0.09 | 0.09 | 98 | 1018.1 |
| 20260905062418 | 50 | 58 | 0.0 | 0.0 | 0.00 | 0.09 | 0.09 | 98 | 1018.0 |
| 20260905061913 | 50 | 58 | 0.0 | 0.0 | 0.00 | 0.09 | 0.09 | 98 | 1018.1 |
| 20260905061413 | 50 | 58 | 0.0 | 0.0 | 0.00 | 0.09 | 0.09 | 98 | 1018.0 |
| 20260905060912 | 50 | 58 | 0.0 | 0.0 | 0.00 | 0.09 | 0.09 | 98 | 1018.1 |
| 20260905060409 | 50 | 58 | 0.0 | 0.0 | 0.00 | 0.09 | 0.09 | 98 | 1018.2 |
| 20260905055908 | 50 | 58 | 0.0 | 0.0 | 0.00 | 0.09 | 0.09 | 98 | 1018.1 |
| 20260905055403 | 50 | 58 | 0.0 | 0.0 | 0.00 | 0.09 | 0.09 | 98 | 1018.1 |
| 20260905054903 | 50 | 58 | 0.0 | 0.0 | 0.00 | 0.09 | 0.09 | 98 | 1018.2 |
| 20260905054359 | 50 | 58 | 0.0 | 0.0 | 0.00 | 0.09 | 0.09 | 98 | 1018.1 |
| 20260905053858 | 50 | 58 | 0.0 | 0.0 | 0.00 | 0.09 | 0.09 | 98 | 1018.0 |
| 20260905053353 | 51 | 58 | 0.0 | 0.0 | 0.00 | 0.09 | 0.09 | 98 | 1018.1 |
| 20260905052849 | 51 | 58 | 0.0 | 0.0 | 0.00 | 0.09 | 0.09 | 98 | 1018.2 |
| 20260905052348 | 51 | 58 | 0.0 | 0.0 | 0.00 | 0.09 | 0.09 | 98 | 1018.0 |
| 20260905051847 | 51 | 58 | 0.0 | 0.0 | 0.00 | 0.09 | 0.09 | 98 | 1018.2 |
| 20260905051343 | 51 | 58 | 0.0 | 0.0 | 0.00 | 0.09 | 0.09 | 98 | 1018.2 |
| 20260905050841 | 51 | 58 | 0.0 | 0.0 | 0.00 | 0.09 | 0.09 | 98 | 1018.1 |
| 20260905050336 | 51 | 58 | 0.0 | 0.0 | 0.00 | 0.09 | 0.09 | 98 | 1018.2 |
| 20260905045831 | 51 | 58 | 0.0 | 0.0 | 0.00 | 0.09 | 0.09 | 98 | 1018.2 |
| 20260905045326 | 51 | 58 | 0.0 | 0.0 | 0.00 | 0.09 | 0.09 | 98 | 1018.0 |
| 20260905044822 | 51 | 58 | 0.0 | 0.0 | 0.00 | 0.09 | 0.09 | 98 | 1018.1 |
| 20260905044317 | 52 | 58 | 0.0 | 0.0 | 0.00 | 0.09 | 0.09 | 98 | 1017.9 |
| 20260905043815 | 52 | 58 | 0.0 | 0.0 | 0.00 | 0.09 | 0.09 | 98 | 1017.9 |
| 20260905043310 | 52 | 58 | 0.0 | 0.0 | 0.00 | 0.09 | 0.09 | 98 | 1018.0 |
| 20260905042805 | 52 | 58 | 0.0 | 0.0 | 0.00 | 0.09 | 0.09 | 97 | 1017.9 |
| 20260905042307 | 52 | 58 | 0.0 | 0.0 | 0.00 | 0.09 | 0.09 | 98 | 1018.0 |
| 20260905041800 | 53 | 58 | 0.0 | 0.0 | 0.00 | 0.09 | 0.09 | 97 | 1017.9 |
| 20260905041256 | 53 | 58 | 0.0 | 0.0 | 0.00 | 0.09 | 0.09 | 98 | 1018.0 |
| 20260905040750 | 53 | 58 | 0.0 | 0.0 | 0.00 | 0.09 | 0.09 | 98 | 1017.9 |
| 20260905040249 | 53 | 58 | 0.0 | 0.0 | 0.00 | 0.09 | 0.09 | 98 | 1017.7 |
| 20260905035744 | 53 | 58 | 0.0 | 0.0 | 0.00 | 0.09 | 0.09 | 98 | 1017.9 |
| 20260905035240 | 53 | 58 | 0.0 | 0.0 | 0.00 | 0.09 | 0.09 | 98 | 1017.9 |
| 20260905034737 | 53 | 58 | 0.0 | 0.0 | 0.00 | 0.09 | 0.09 | 98 | 1017.6 |
| 20260905034237 | 53 | 58 | 0.0 | 0.0 | 0.00 | 0.09 | 0.09 | 97 | 1017.5 |
| 20260905033735 | 53 | 58 | 0.0 | 0.0 | 0.00 | 0.09 | 0.09 | 97 | 1017.5 |
| 20260905033231 | 53 | 58 | 0.0 | 0.0 | 0.00 | 0.09 | 0.09 | 97 | 1017.5 |
| 20260905032730 | 53 | 58 | 0.0 | 0.0 | 0.00 | 0.09 | 0.09 | 97 | 1017.4 |
| 20260905032226 | 53 | 58 | 0.0 | 0.0 | 0.00 | 0.09 | 0.09 | 96 | 1017.1 |
| 20260905031721 | 54 | 58 | 0.0 | 0.0 | 0.00 | 0.09 | 0.09 | 96 | 1017.0 |
| 20260905031217 | 54 | 58 | 0.0 | 0.0 | 0.00 | 0.09 | 0.09 | 95 | 1017.1 |
| 20260905030712 | 54 | 58 | 0.0 | 0.0 | 0.00 | 0.09 | 0.09 | 94 | 1016.9 |
| 20260905030207 | 54 | 58 | 0.0 | 0.0 | 0.00 | 0.09 | 0.09 | 94 | 1017.0 |
| 20260905025702 | 55 | 58 | 0.0 | 0.0 | 0.00 | 0.09 | 0.09 | 94 | 1017.0 |
| 20260905025157 | 55 | 58 | 0.0 | 0.0 | 0.00 | 0.09 | 0.09 | 93 | 1016.9 |
| 20260905024653 | 55 | 58 | 0.0 | 0.0 | 0.00 | 0.09 | 0.09 | 92 | 1016.7 |
| 20260905024148 | 55 | 58 | 0.0 | 0.0 | 0.00 | 0.09 | 0.09 | 91 | 1016.7 |
| 20260905023643 | 55 | 57 | 0.0 | 0.0 | 0.00 | 0.09 | 0.09 | 91 | 1016.6 |
| 20260905023143 | 56 | 58 | 0.0 | 0.0 | 0.00 | 0.09 | 0.09 | 91 | 1016.6 |
| 20260905022642 | 56 | 58 | 0.0 | 0.0 | 0.00 | 0.09 | 0.09 | 90 | 1016.5 |
| 20260905022137 | 56 | 57 | 0.0 | 0.0 | 0.00 | 0.09 | 0.09 | 90 | 1016.6 |
| 20260905021632 | 56 | 57 | 0.0 | 0.0 | 0.00 | 0.09 | 0.09 | 89 | 1016.9 |
| 20260905021127 | 57 | 57 | 0.0 | 0.0 | 0.00 | 0.09 | 0.09 | 89 | 1016.8 |
| 20260905020627 | 57 | 57 | 0.0 | 0.0 | 0.00 | 0.09 | 0.09 | 88 | 1016.6 |
| 20260905020122 | 57 | 57 | 0.0 | 0.0 | 0.00 | 0.09 | 0.09 | 88 | 1016.6 |
| 20260905015621 | 57 | 57 | 0.0 | 0.0 | 0.00 | 0.09 | 0.09 | 87 | 1016.6 |
| 20260905015115 | 58 | 57 | 0.0 | 0.0 | 0.00 | 0.09 | 0.09 | 87 | 1016.5 |
| 20260905014609 | 58 | 57 | 0.0 | 0.0 | 0.00 | 0.09 | 0.09 | 86 | 1016.4 |
| 20260905014105 | 58 | 57 | 0.0 | 0.0 | 0.00 | 0.09 | 0.09 | 86 | 1016.5 |
| 20260905013601 | 59 | 57 | 0.0 | 0.0 | 0.00 | 0.09 | 0.09 | 86 | 1016.5 |
| 20260905013057 | 59 | 57 | 0.0 | 0.0 | 0.00 | 0.09 | 0.09 | 85 | 1016.5 |
| 20260905012556 | 59 | 57 | 0.0 | 0.0 | 0.00 | 0.09 | 0.09 | 82 | 1016.5 |
| 20260905012054 | 59 | 57 | 0.0 | 0.0 | 0.00 | 0.09 | 0.09 | 80 | 1016.6 |
| 20260905011549 | 60 | 58 | 0.0 | 0.0 | 0.00 | 0.09 | 0.09 | 82 | 1016.3 |
| 20260905011045 | 59 | 41 | 0.0 | 0.0 | 0.00 | 0.09 | 0.09 | 82 | 1016.4 |
| 20260905010544 | 60 | 41 | 0.0 | 0.0 | 0.00 | 0.09 | 0.09 | 83 | 1016.4 |
| 20260905010041 | 59 | 41 | 0.0 | 0.0 | 0.00 | 0.09 | 0.09 | 83 | 1016.7 |
| 20260905005536 | 60 | 41 | 0.0 | 0.0 | 0.00 | 0.09 | 0.09 | 87 | 1016.4 |
| 20260905005031 | 60 | 41 | 0.0 | 0.0 | 0.00 | 0.09 | 0.09 | 87 | 1016.3 |
| 20260905004526 | 60 | 41 | 0.0 | 0.0 | 0.00 | 0.09 | 0.09 | 87 | 1016.3 |
| 20260905004021 | 61 | 41 | 0.0 | 0.0 | 0.00 | 0.09 | 0.09 | 86 | 1016.5 |
| 20260905003518 | 61 | 41 | 0.0 | 0.0 | 0.00 | 0.09 | 0.09 | 86 | 1016.4 |
| 20260905003013 | 61 | 41 | 0.0 | 0.0 | 0.00 | 0.09 | 0.09 | 85 | 1016.3 |
| 20260905002508 | 61 | 41 | 0.0 | 0.0 | 0.00 | 0.09 | 0.09 | 85 | 1016.1 |
| 20260905002002 | 60 | 41 | 0.0 | 0.0 | 0.00 | 0.09 | 0.09 | 85 | 1016.2 |
| 20260905001456 | 60 | 41 | 0.0 | 0.0 | 0.00 | 0.09 | 0.09 | 84 | 1016.3 |
| 20260905000951 | 60 | 41 | 0.0 | 0.0 | 0.00 | 0.09 | 0.09 | 83 | 1016.1 |
| 20260905000447 | 61 | 41 | 0.0 | 0.0 | 0.00 | 0.09 | 0.09 | 85 | 1016.3 |
| 20260904235942 | 60 | 41 | 0.0 | 0.0 | 0.00 | 0.09 | 0.09 | 84 | 1016.0 |
| 20260904235438 | 60 | 41 | 0.0 | 0.0 | 0.00 | 0.09 | 0.09 | 85 | 1016.0 |
| 20260904234932 | 60 | 41 | 0.0 | 0.0 | 0.00 | 0.09 | 0.09 | 86 | 1015.8 |
| 20260904234431 | 60 | 41 | 0.0 | 0.0 | 0.00 | 0.09 | 0.09 | 85 | 1016.1 |
| 20260904233928 | 59 | 41 | 0.0 | 0.0 | 0.00 | 0.09 | 0.09 | 85 | 1015.9 |
| 20260904233423 | 60 | 41 | 0.0 | 0.0 | 0.00 | 0.09 | 0.09 | 86 | 1016.0 |
| 20260904232919 | 59 | 41 | 0.0 | 0.0 | 0.00 | 0.09 | 0.09 | 86 | 1015.9 |
| 20260904232416 | 59 | 41 | 0.0 | 0.0 | 0.00 | 0.09 | 0.09 | 85 | 1016.1 |
| 20260904231912 | 59 | 41 | 0.0 | 0.0 | 0.00 | 0.09 | 0.09 | 85 | 1015.9 |
| 20260904231407 | 59 | 41 | 0.0 | 0.0 | 0.00 | 0.09 | 0.09 | 86 | 1015.7 |
| 20260904230902 | 59 | 41 | 0.0 | 0.0 | 0.00 | 0.09 | 0.09 | 86 | 1015.6 |
| 20260904230400 | 60 | 41 | 0.0 | 0.0 | 0.00 | 0.09 | 0.09 | 84 | 1015.9 |
| 20260904225855 | 60 | 41 | 0.0 | 0.0 | 0.00 | 0.09 | 0.09 | 84 | 1015.6 |
| 20260904225354 | 60 | 41 | 0.0 | 0.0 | 0.00 | 0.09 | 0.09 | 84 | 1015.7 |
| 20260904224854 | 61 | 41 | 0.0 | 0.0 | 0.00 | 0.09 | 0.09 | 84 | 1015.6 |
| 20260904224349 | 62 | 41 | 0.0 | 0.0 | 0.00 | 0.09 | 0.09 | 82 | 1015.5 |
| 20260904223849 | 62 | 41 | 0.0 | 0.0 | 0.00 | 0.09 | 0.09 | 79 | 1015.7 |
| 20260904223348 | 62 | 41 | 0.0 | 0.0 | 0.00 | 0.09 | 0.09 | 74 | 1015.8 |
| 20260904222844 | 63 | 41 | 0.0 | 0.0 | 0.00 | 0.09 | 0.09 | 72 | 1015.6 |